CZ-6A DEB, 55002

Orbit data source: Space-Track

CZ-6A DEB, 55002 is space debris in SSO originally from a launch on Fri, 11 Nov 2022 UTC launched from the Taiyaun Space Center, China (TSC). Debris objects in space refer to the collection of defunct objects orbiting the Earth. Examples of debris include non-operational satellites, rocket bodies, and fragments generated from explosions, collisions, or faulty payload assembly.

Loading next visibility...
Identifier
55002, 2022-151US
Orbit
SSO
Country
Flag of CNCN / PRC
Related business
Manufacturer
SAST
Mission
Spacecraft
Bus & Motor
Unknown
Mass
Unknown
Launch date (UTC)
2022-11-11 (3 years ago)
Launch vehicle
Unknown
Launch site
Taiyaun Space Center, China (TSC)
Object type
Payload
Rocket body
Debris
Shape & HBR
Unknown shape, 0.1 m
Radar Cross Section
Small (<0.1 m²)

Expand to show TLE details & history
Last TLE update: 12 hours ago

TLE from 12 hours ago
0 CZ-6A DEB
1 55002U 22151US  25353.27484680  .00001115  00000-0  57248-3 0  9997
2 55002  98.7949 357.1927 0029846 116.8175 243.6058 14.17170915158976
Epoch: 2025-12-19T06:35Z
TLE epoch observation values (Epoch: 2025-12-19T06:35:46.763Z)
Latitude
0.00005°
Longitude
170.1295°
Altitude
847.468 km
Speed
7.424 km/s
True Right ascension
23h 48m 46s
True Declination
0° 00' 00"
Sunlit
Object was in daylight at epoch
Visualization orbit readout
Latitude
Unknown
Longitude
Unknown
Altitude
Unknown
Speed
Unknown
Apparent Right ascension
Unknown
Apparent Declination
Unknown
Sunlit
N/A
Visualization observer readout
Local Sidereal Time
17:04:19
Azimuth
Unknown
Elevation
Unknown
Doppler factor
Unknown
Orbital elements
Apogee altitude
853.623 km
Perigee altitude
810.583 km
Semi-major axis
7,210.24 km
Eccentricity
0.00298
Inclination
98.7949°
RAAN
357.1927°
Arg. of periapsis
116.8175°
True anomaly
243.29995°
Mean anomaly
243.6058°
Eccentric anomaly
243.45282°
Mean motion
3.54502 °/min
Orbital period
101.55 mins
BSTAR
0.00057248
Loading maneuver chart data...
Computing Atmospheric mass density...

Documentation

Showing up to 5 results
|